This demonstration page uses our WeatherBlox Daily Observations layout. Learn more.

Left ArrowRight Arrow

41.12389, -100.76542

Hourly Observations for September 10, 2020

Temp ( °F °C ) Dew Point ( °F °C ) Humidity (%) Winds ( mph kmh ) Pressure ( in mb ) Visibility ( mi km ) Precip ( " mm )
12:53 am 00:53 Cloudy 44 6.7 38 3.3 79 79 Calm 30.46 1031 10 16 0.00 0.00
1:53 am 01:53 Cloudy 43 6.1 38 3.3 82 82 Calm 30.45 1031 10 16 0.00 0.00
2:53 am 02:53 Cloudy 43 6.1 38 3.3 82 82 Calm 30.43 1031 10 16 0.00 0.00
3:53 am 03:53 Cloudy 43 6.1 39 3.9 86 86 Calm 30.44 1031 10 16 0.00 0.00
4:53 am 04:53 Cloudy 43 6.1 39 3.9 86 86 Calm 30.44 1031 10 16 0.00 0.00
5:53 am 05:53 Cloudy 42 5.6 38 3.3 85 85 Calm 30.44 1031 10 16 0.00 0.00
6:53 am 06:53 Cloudy 40 4.4 37 2.8 89 89 Calm 30.45 1031 10 16 0.00 0.00
7:53 am 07:53 Cloudy 41 5 38 3.3 89 89 NW 3 6 30.46 1032 10 16 0.00 0.00
8:53 am 08:53 Sunny 46 7.8 39 3.9 77 77 Calm 30.44 1031 10 16 0.00 0.00
9:53 am 09:53 Sunny 49 9.4 38 3.3 66 66 Calm 30.44 1031 10 16 0.00 0.00
10:53 am 10:53 Mostly Sunny 51 10.6 37 2.8 59 59 VRB 5 7 30.45 1031 10 16 0.00 0.00
11:53 am 11:53 Sunny 55 12.8 38 3.3 53 53 Calm 30.43 1030 10 16 0.00 0.00
12:53 pm 12:53 Sunny 57 13.9 36 2.2 45 45 Calm 30.39 1029 10 16 0.00 0.00
1:53 pm 13:53 Sunny 59 15 38 3.3 46 46 Calm 30.37 1028 10 16 0.00 0.00
2:53 pm 14:53 Sunny 61 16.1 40 4.4 46 46 VRB 6 9 30.35 1028 10 16 0.00 0.00
3:53 pm 15:53 Sunny 62 16.7 40 4.4 44 44 S 7 11 30.32 1027 10 16 0.00 0.00
4:53 pm 16:53 Cloudy 63 17.2 41 5 45 45 VRB 5 7 30.31 1026 10 16 0.00 0.00
5:53 pm 17:53 Mostly Cloudy 62 16.7 41 5 46 46 ESE 8 13 30.29 1026 10 16 0.00 0.00
6:53 pm 18:53 Mostly Sunny 61 16.1 44 6.7 54 54 SE 6 9 30.29 1026 10 16 0.00 0.00
7:53 pm 19:53 Cloudy 59 15 45 7.2 60 60 ESE 6 9 30.29 1026 10 16 0.00 0.00
8:53 pm 20:53 Cloudy 57 13.9 46 7.8 67 67 E 7 11 30.28 1025 10 16 0.00 0.00
9:53 pm 21:53 Cloudy 56 13.3 46 7.8 70 70 ESE 9 15 30.29 1026 10 16 0.00 0.00
10:53 pm 22:53 Cloudy 54 12.2 45 7.2 72 72 ESE 13 20 30.29 1026 10 16 0.00 0.00
11:53 pm 23:53 Cloudy 53 11.7 46 7.8 77 77 ESE 10 17 30.28 1025 10 16 0.00 0.00

Powered by AerisWeather